• In Czech Republic
  • List of Countries
  • For 7 days
  • Water Temperature
  • Satellite Maps
  • Weather Map
  • Weather Widgets
  • user-avatar
    Login

    Hourly Weather Abingdon

    Today, 18 July, Wednesday

    Time Temperature Precipitation Wind Pressure Humidity
    00:00 +14°C° 0 mm 2 mps 757 mmHg 90%
    01:00 +14°C° 0 mm 1 mps 757 mmHg 91%
    02:00 +13°C° 0 mm 1 mps 757 mmHg 91%
    03:00 +13°C° 0 mm 1 mps 757 mmHg 92%
    04:00 +14°C° 0 mm 1 mps 757 mmHg 90%
    05:00 +15°C° 0 mm 1 mps 757 mmHg 87%
    06:00 +15°C° 0 mm 1 mps 758 mmHg 85%
    07:00 +17°C° 0.1 mm 2 mps 758 mmHg 78%
    08:00 +19°C° 0.1 mm 2 mps 758 mmHg 70%
    09:00 +21°C° 0.1 mm 2 mps 758 mmHg 63%
    10:00 +21°C° 0.1 mm 2 mps 758 mmHg 61%
    11:00 +23°C° 0.1 mm 2 mps 758 mmHg 59%
    12:00 +23°C° 0.1 mm 2 mps 758 mmHg 57%
    13:00 +23°C° 0.1 mm 2 mps 758 mmHg 55%
    14:00 +24°C° 0.1 mm 2 mps 758 mmHg 54%
    15:00 +24°C° 0.1 mm 2 mps 758 mmHg 52%
    16:00 +24°C° 0.1 mm 2 mps 758 mmHg 55%
    17:00 +23°C° 0.1 mm 1 mps 758 mmHg 58%
    18:00 +23°C° 0.1 mm 1 mps 758 mmHg 62%
    19:00 +21°C° 0 mm 1 mps 758 mmHg 67%
    20:00 +20°C° 0 mm 1 mps 758 mmHg 72%
    21:00 +18°C° 0 mm 1 mps 759 mmHg 77%
    22:00 +16°C° 0 mm 1 mps 759 mmHg 80%
    23:00 +16°C° 0 mm 1 mps 759 mmHg 83%

    Tomorrow, 19 July, Thursday

    Time Temperature Precipitation Wind Pressure Humidity
    00:00 +15°C° 0 mm 1 mps 759 mmHg 86%
    01:00 +15°C° 0 mm 1 mps 759 mmHg 87%
    02:00 +14°C° 0 mm 1 mps 759 mmHg 88%
    03:00 +14°C° 0 mm 1 mps 759 mmHg 88%
    04:00 +15°C° 0 mm 1 mps 759 mmHg 86%
    05:00 +15°C° 0 mm 1 mps 759 mmHg 83%
    06:00 +16°C° 0 mm 1 mps 759 mmHg 80%
    07:00 +19°C° 0 mm 1 mps 759 mmHg 74%
    08:00 +21°C° 0 mm 1 mps 759 mmHg 68%
    09:00 +22°C° 0 mm 1 mps 759 mmHg 62%
    10:00 +23°C° 0 mm 1 mps 759 mmHg 58%
    11:00 +25°C° 0 mm 1 mps 759 mmHg 53%
    12:00 +26°C° 0 mm 1 mps 759 mmHg 49%
    13:00 +26°C° 0 mm 1 mps 759 mmHg 48%
    14:00 +26°C° 0 mm 1 mps 758 mmHg 48%
    15:00 +25°C° 0 mm 1 mps 758 mmHg 48%
    16:00 +25°C° 0 mm 1 mps 758 mmHg 50%
    17:00 +25°C° 0 mm 1 mps 758 mmHg 52%
    18:00 +24°C° 0 mm 1 mps 758 mmHg 55%
    19:00 +23°C° 0 mm 1 mps 758 mmHg 59%
    20:00 +21°C° 0 mm 1 mps 758 mmHg 63%
    21:00 +20°C° 0 mm 1 mps 758 mmHg 67%
    22:00 +19°C° 0 mm 1 mps 758 mmHg 71%
    23:00 +18°C° 0 mm 1 mps 758 mmHg 75%

    Day after tomorrow, 20 July, Friday

    Time Temperature Precipitation Wind Pressure Humidity
    00:00 +16°C° 0 mm 1 mps 758 mmHg 79%
    01:00 +16°C° 0 mm 1 mps 758 mmHg 81%
    02:00 +15°C° 0 mm 1 mps 757 mmHg 83%
    03:00 +15°C° 0 mm 1 mps 757 mmHg 86%
    04:00 +15°C° 0 mm 1 mps 757 mmHg 84%
    05:00 +16°C° 0 mm 1 mps 757 mmHg 82%
    06:00 +16°C° 0 mm 1 mps 757 mmHg 80%
    07:00 +18°C° 0 mm 2 mps 757 mmHg 73%
    08:00 +20°C° 0 mm 2 mps 757 mmHg 66%
    09:00 +23°C° 0 mm 2 mps 757 mmHg 60%
    10:00 +24°C° 0 mm 2 mps 757 mmHg 56%
    11:00 +25°C° 0 mm 2 mps 756 mmHg 52%
    12:00 +26°C° 0 mm 2 mps 756 mmHg 48%
    13:00 +26°C° 0 mm 2 mps 756 mmHg 48%
    14:00 +26°C° 0 mm 2 mps 756 mmHg 48%
    15:00 +26°C° 0 mm 3 mps 756 mmHg 48%
    16:00 +25°C° 0 mm 3 mps 756 mmHg 54%
    17:00 +24°C° 0 mm 3 mps 756 mmHg 59%
    18:00 +21°C° 0 mm 4 mps 755 mmHg 65%
    19:00 +20°C° 0 mm 4 mps 756 mmHg 69%
    20:00 +19°C° 0 mm 3 mps 756 mmHg 73%
    21:00 +18°C° 0 mm 3 mps 756 mmHg 77%
    22:00 +17°C° 0 mm 3 mps 756 mmHg 81%
    23:00 +16°C° 0 mm 2 mps 756 mmHg 84%

    21 July, Saturday

    Time Temperature Precipitation Wind Pressure Humidity
    00:00 +15°C° 0 mm 2 mps 756 mmHg 87%
    01:00 +15°C° 0 mm 2 mps 756 mmHg 88%
    02:00 +15°C° 0 mm 2 mps 756 mmHg 88%
    03:00 +15°C° 0 mm 2 mps 756 mmHg 89%
    04:00 +15°C° 0 mm 2 mps 756 mmHg 88%
    05:00 +16°C° 0 mm 2 mps 756 mmHg 87%
    06:00 +16°C° 0 mm 2 mps 756 mmHg 86%
    07:00 +17°C° 0 mm 2 mps 756 mmHg 80%
    08:00 +19°C° 0 mm 2 mps 756 mmHg 74%
    09:00 +20°C° 0 mm 2 mps 756 mmHg 69%
    10:00 +21°C° 0.1 mm 2 mps 756 mmHg 65%
    11:00 +23°C° 0.1 mm 2 mps 756 mmHg 61%
    12:00 +25°C° 0.1 mm 2 mps 756 mmHg 57%
    13:00 +25°C° 0.2 mm 3 mps 756 mmHg 57%
    14:00 +25°C° 0.2 mm 3 mps 756 mmHg 56%
    15:00 +26°C° 0.2 mm 4 mps 756 mmHg 55%
    16:00 +25°C° 0.1 mm 3 mps 756 mmHg 57%
    17:00 +25°C° 0.1 mm 3 mps 756 mmHg 59%
    18:00 +24°C° 0.1 mm 3 mps 756 mmHg 60%
    19:00 +21°C° 0 mm 3 mps 756 mmHg 66%
    20:00 +20°C° 0 mm 3 mps 757 mmHg 72%
    21:00 +18°C° 0 mm 3 mps 757 mmHg 78%
    22:00 +17°C° 0 mm 3 mps 757 mmHg 80%
    23:00 +16°C° 0 mm 3 mps 757 mmHg 81%

    22 July, Sunday

    Time Temperature Precipitation Wind Pressure Humidity
    00:00 +14°C° 0 mm 3 mps 757 mmHg 82%
    01:00 +13°C° 0 mm 3 mps 757 mmHg 84%
    02:00 +13°C° 0 mm 3 mps 757 mmHg 85%
    03:00 +12°C° 0 mm 3 mps 757 mmHg 86%
    04:00 +13°C° 0 mm 3 mps 758 mmHg 85%
    05:00 +13°C° 0 mm 3 mps 758 mmHg 83%
    06:00 +13°C° 0 mm 3 mps 758 mmHg 82%
    07:00 +16°C° 0 mm 3 mps 758 mmHg 74%
    08:00 +18°C° 0 mm 3 mps 758 mmHg 66%
    09:00 +20°C° 0 mm 3 mps 758 mmHg 59%
    10:00 +21°C° 0 mm 3 mps 758 mmHg 54%
    11:00 +24°C° 0 mm 2 mps 758 mmHg 49%
    12:00 +25°C° 0 mm 2 mps 758 mmHg 45%
    13:00 +26°C° 0 mm 2 mps 758 mmHg 44%
    14:00 +27°C° 0 mm 2 mps 758 mmHg 44%
    15:00 +27°C° 0 mm 2 mps 758 mmHg 43%
    16:00 +27°C° 0 mm 2 mps 758 mmHg 46%
    17:00 +27°C° 0 mm 2 mps 757 mmHg 49%
    18:00 +27°C° 0 mm 2 mps 757 mmHg 53%
    19:00 +25°C° 0 mm 2 mps 758 mmHg 61%
    20:00 +23°C° 0 mm 2 mps 758 mmHg 69%
    21:00 +21°C° 0 mm 1 mps 758 mmHg 77%
    22:00 +19°C° 0 mm 2 mps 758 mmHg 81%
    23:00 +18°C° 0 mm 2 mps 758 mmHg 85%

    23 July, Monday

    Time Temperature Precipitation Wind Pressure Humidity
    00:00 +17°C° 0 mm 2 mps 758 mmHg 89%
    01:00 +18°C° 0 mm 1 mps 758 mmHg 90%
    02:00 +18°C° 0 mm 1 mps 758 mmHg 91%
    03:00 +16°C° 0 mm 1 mps 757 mmHg 92%
    04:00 +18°C° 0 mm 1 mps 757 mmHg 89%
    05:00 +18°C° 0 mm 1 mps 757 mmHg 87%
    06:00 +19°C° 0 mm 1 mps 757 mmHg 84%
    07:00 +21°C° 0 mm 1 mps 757 mmHg 76%
    08:00 +23°C° 0 mm 2 mps 757 mmHg 69%
    09:00 +24°C° 0 mm 2 mps 757 mmHg 62%
    10:00 +26°C° 0 mm 2 mps 757 mmHg 56%
    11:00 +27°C° 0 mm 3 mps 756 mmHg 51%
    12:00 +28°C° 0 mm 3 mps 756 mmHg 46%
    13:00 +29°C° 0 mm 3 mps 756 mmHg 45%
    14:00 +29°C° 0 mm 3 mps 755 mmHg 43%
    15:00 +29°C° 0 mm 4 mps 755 mmHg 42%
    16:00 +28°C° 0 mm 4 mps 755 mmHg 45%
    17:00 +28°C° 0 mm 4 mps 755 mmHg 47%
    18:00 +27°C° 0 mm 4 mps 754 mmHg 50%
    19:00 +23°C° 0 mm 4 mps 754 mmHg 58%
    20:00 +21°C° 0 mm 3 mps 754 mmHg 66%
    21:00 +18°C° 0 mm 3 mps 754 mmHg 74%
    22:00 +18°C° 0 mm 2 mps 754 mmHg 78%
    23:00 +17°C° 0 mm 2 mps 754 mmHg 82%
    Show more